Regional Weather Roundup
Issued by NWS Spokane, WA

Home | Current Version | Previous Version | Text Only | Print | Product List | Glossary On
Versions: 1 2 3 4 5 6 7 8 9 10 11 12 13 14 15 16 17 18 19 20 21 22 23 24 25 26 27 28 29 30 31 32 33 34 35 36 37 38 39 40 41 42 43 44 45 46 47 48 49 50
318
NZUS01 KOTX 141325
RWROTX

Eastern Washington/Northern Idaho Roundup
National Weather Service, Spokane WA
500 AM PST THU DEC 14 2017

Note: "fair" indicated few or no clouds below 12,000 feet with no
significant weather and/or obstructions to visibility.

...Northeast Washington and Northern Idaho Panhandle...

CITY           SKY/WX    TMP DP  RH WIND       PRES   REMARKS
Spokane Intl   CLOUDY    30  27  88 N5        30.53S WCI  25
Spokane Downto CLOUDY    32  27  81 CALM      30.56R
Deer Park      CLOUDY    30  26  85 N7        30.55S WCI  23
Sandpoint      CLOUDY    30  25  80 NE8       30.56S WCI  23
Bonners Ferry  CLOUDY    28  23  80 CALM      30.55F

...Southeast Washington and southern Idaho Panhandle...

CITY           SKY/WX    TMP DP  RH WIND       PRES   REMARKS
Walla Walla    CLOUDY    28  27  96 W3        30.59S FOG
Pullman/Moscow CLOUDY    27  24  89 E5        30.52S FOG     WCI  22
Lewiston       CLOUDY    32  27  81 CALM      30.56S
Lowell           N/A     32  30  92 CALM      30.55F
Grangeville    CLOUDY    27  27 100 E5        30.45S VSB 1   WCI  21

...Columbia Basin...

CITY           SKY/WX    TMP DP  RH WIND       PRES   REMARKS
Ephrata        CLOUDY    33  26  75 N5        30.57F WCI  29
Moses Lake     CLOUDY    31  27  85 CALM      30.58F
Pasco          CLOUDY    32  28  85 SE3       30.65F
Richland       CLOUDY    32  30  92 SE3       30.65S
Hermiston      CLOUDY    30  27  88 SE5       30.62F WCI  25
Pendleton      CLOUDY    27  25  92 CALM      30.57S

...East Slopes Cascades...

CITY           SKY/WX    TMP DP  RH WIND       PRES   REMARKS
The Dalles     CLOUDY    34  26  72 SE10      30.65R WCI  26
Yakima         CLOUDY    32  28  85 W5        30.61S WCI  27
Ellensburg     CLOUDY    30  28  92 CALM      30.55F FOG
Stampede Pass  FOG       22  20  92 N9        30.38S VSB 1/2 WCI  12
Wenatchee      CLOUDY    30  27  88 CALM      30.58F
Omak           LGT SNOW  31  30  96 S5        30.57F FOG     WCI  26
Sunnyside      CLOUDY    30  27  87 CALM      30.62F

...Southern British Columbia...

CITY           SKY/WX    TMP DP  RH WIND       PRES   REMARKS
Penticton      CLOUDY    34  30  86 S12       30.54F WCI  25
Cranbrook      CLOUDY    16  12  86 VRB2      30.54F
Osoyoos          N/A     34  28  80 SE7         N/A  WCI  28
Creston          N/A     28  21  74 NE7         N/A  WCI  21

...Western Montana...

CITY           SKY/WX    TMP DP  RH WIND       PRES   REMARKS
Kalispell      CLOUDY    25  23  92 CALM      30.53R
Libby            N/A     28  25  86 CALM      30.55R
Missoula       CLOUDY    26  24  92 SE5       30.50F WCI  20

...Neighboring Cities...

CITY           SKY/WX    TMP DP  RH WIND       PRES   REMARKS
Seattle        MOCLDY    39  37  92 NE10      30.33F
Portland       CLEAR     39  30  70 VRB3      30.34S
Boise          CLOUDY    25  22  88 SE8       30.53S WCI  16
Great Falls    CLOUDY    25  20  81 S8        30.37F WCI  16
Calgary        PTCLDY    27  18  69 SW7       30.27F WCI  19



USA.gov is the U.S. government's official web portal to all federal, state and local government web resources and services.